<?xml version="1.0" encoding="UTF-8" standalone="no" ?>
<gpx xmlns="http://www.topografix.com/GPX/1/1" xmlns:xsi="http://www.w3.org/2001/XMLSchema-instance" xsi:schemaLocation="http://www.topografix.com/GPX/1/1 http://www.topografix.com/GPX/1/1/gpx.xsd" version="1.1" creator="VisuGPX - https://www.visugpx.com">
  <metadata>
    <name>Caurel_LacGuerledan13-15km</name>
    <desc><![CDATA[gnerando idor:8140768_8140798]]></desc>
  </metadata>
  <trk>
    <name><![CDATA[LacGuerledan_StAignanBoisDuFao_12.8km-8140768]]></name>
    <extensions>
      <line xmlns="http://www.topografix.com/GPX/gpx_style/0/2">
        <color>0000FF</color>
        <width>4</width>
      </line>
    </extensions>
    <trkseg>
      <trkpt lat="48.18308" lon="-3.0136">
        <ele>82</ele>
        <time>2023-11-12T06:45:05Z</time>
      </trkpt>
      <trkpt lat="48.18497" lon="-3.01549">
        <ele>90</ele>
        <time>2023-11-12T06:50:08Z</time>
      </trkpt>
      <trkpt lat="48.18706" lon="-3.01712">
        <ele>85</ele>
        <time>2023-11-12T06:55:22Z</time>
      </trkpt>
      <trkpt lat="48.1876" lon="-3.01832">
        <ele>90</ele>
        <time>2023-11-12T06:57:31Z</time>
      </trkpt>
      <trkpt lat="48.19012" lon="-3.01935">
        <ele>98</ele>
        <time>2023-11-12T07:03:20Z</time>
      </trkpt>
      <trkpt lat="48.19224" lon="-3.02115">
        <ele>109</ele>
        <time>2023-11-12T07:08:45Z</time>
      </trkpt>
      <trkpt lat="48.19324" lon="-3.02072">
        <ele>103</ele>
        <time>2023-11-12T07:11:04Z</time>
      </trkpt>
      <trkpt lat="48.19416" lon="-3.01961">
        <ele>97</ele>
        <time>2023-11-12T07:13:41Z</time>
      </trkpt>
      <trkpt lat="48.19493" lon="-3.01961">
        <ele>121</ele>
        <time>2023-11-12T07:15:24Z</time>
      </trkpt>
      <trkpt lat="48.19619" lon="-3.01866">
        <ele>124</ele>
        <time>2023-11-12T07:18:32Z</time>
      </trkpt>
      <trkpt lat="48.19593" lon="-3.02046">
        <ele>138</ele>
        <time>2023-11-12T07:21:16Z</time>
      </trkpt>
      <trkpt lat="48.19501" lon="-3.02497">
        <ele>151</ele>
        <time>2023-11-12T07:28:16Z</time>
      </trkpt>
      <trkpt lat="48.19481" lon="-3.02879">
        <ele>154</ele>
        <time>2023-11-12T07:33:56Z</time>
      </trkpt>
      <trkpt lat="48.19619" lon="-3.03227">
        <ele>156</ele>
        <time>2023-11-12T07:39:57Z</time>
      </trkpt>
      <trkpt lat="48.19736" lon="-3.03312">
        <ele>137</ele>
        <time>2023-11-12T07:42:50Z</time>
      </trkpt>
      <trkpt lat="48.19822" lon="-3.03458">
        <ele>147</ele>
        <time>2023-11-12T07:45:43Z</time>
      </trkpt>
      <trkpt lat="48.19908" lon="-3.03609">
        <ele>151</ele>
        <time>2023-11-12T07:48:40Z</time>
      </trkpt>
      <trkpt lat="48.20019" lon="-3.03613">
        <ele>135</ele>
        <time>2023-11-12T07:51:08Z</time>
      </trkpt>
      <trkpt lat="48.20071" lon="-3.03712">
        <ele>142</ele>
        <time>2023-11-12T07:53:00Z</time>
      </trkpt>
      <trkpt lat="48.20156" lon="-3.03793">
        <ele>130</ele>
        <time>2023-11-12T07:55:15Z</time>
      </trkpt>
      <trkpt lat="48.20202" lon="-3.04188">
        <ele>141</ele>
        <time>2023-11-12T08:01:11Z</time>
      </trkpt>
      <trkpt lat="48.20154" lon="-3.04694">
        <ele>144</ele>
        <time>2023-11-12T08:08:46Z</time>
      </trkpt>
      <trkpt lat="48.20174" lon="-3.04905">
        <ele>156</ele>
        <time>2023-11-12T08:11:56Z</time>
      </trkpt>
      <trkpt lat="48.20331" lon="-3.05179">
        <ele>139</ele>
        <time>2023-11-12T08:17:17Z</time>
      </trkpt>
      <trkpt lat="48.20359" lon="-3.05287">
        <ele>144</ele>
        <time>2023-11-12T08:19:00Z</time>
      </trkpt>
      <trkpt lat="48.2046" lon="-3.05342">
        <ele>136</ele>
        <time>2023-11-12T08:21:23Z</time>
      </trkpt>
      <trkpt lat="48.20534" lon="-3.05527">
        <ele>141</ele>
        <time>2023-11-12T08:24:35Z</time>
      </trkpt>
      <trkpt lat="48.20451" lon="-3.06063">
        <ele>139</ele>
        <time>2023-11-12T08:32:45Z</time>
      </trkpt>
      <trkpt lat="48.20445" lon="-3.06626">
        <ele>129</ele>
        <time>2023-11-12T08:41:05Z</time>
      </trkpt>
      <trkpt lat="48.20365" lon="-3.06763">
        <ele>128</ele>
        <time>2023-11-12T08:43:47Z</time>
      </trkpt>
      <trkpt lat="48.20188" lon="-3.06896">
        <ele>140</ele>
        <time>2023-11-12T08:48:12Z</time>
      </trkpt>
      <trkpt lat="48.20382" lon="-3.0696">
        <ele>133</ele>
        <time>2023-11-12T08:52:37Z</time>
      </trkpt>
      <trkpt lat="48.20497" lon="-3.07377">
        <ele>143</ele>
        <time>2023-11-12T08:59:18Z</time>
      </trkpt>
      <trkpt lat="48.20648" lon="-3.07651">
        <ele>137</ele>
        <time>2023-11-12T09:04:34Z</time>
      </trkpt>
      <trkpt lat="48.20917" lon="-3.07892">
        <ele>126</ele>
        <time>2023-11-12T09:11:32Z</time>
      </trkpt>
      <trkpt lat="48.20871" lon="-3.08046">
        <ele>135</ele>
        <time>2023-11-12T09:14:02Z</time>
      </trkpt>
      <trkpt lat="48.2086" lon="-3.08304">
        <ele>133</ele>
        <time>2023-11-12T09:17:52Z</time>
      </trkpt>
      <trkpt lat="48.2078" lon="-3.08428">
        <ele>136</ele>
        <time>2023-11-12T09:20:26Z</time>
      </trkpt>
      <trkpt lat="48.20726" lon="-3.08385">
        <ele>150</ele>
        <time>2023-11-12T09:21:47Z</time>
      </trkpt>
      <trkpt lat="48.20688" lon="-3.08462">
        <ele>133</ele>
        <time>2023-11-12T09:23:13Z</time>
      </trkpt>
      <trkpt lat="48.20583" lon="-3.08411">
        <ele>147</ele>
        <time>2023-11-12T09:25:40Z</time>
      </trkpt>
      <trkpt lat="48.20457" lon="-3.08389">
        <ele>148</ele>
        <time>2023-11-12T09:28:29Z</time>
      </trkpt>
      <trkpt lat="48.20282" lon="-3.08608">
        <ele>141</ele>
        <time>2023-11-12T09:33:33Z</time>
      </trkpt>
      <trkpt lat="48.20136" lon="-3.08964">
        <ele>150</ele>
        <time>2023-11-12T09:39:45Z</time>
      </trkpt>
      <trkpt lat="48.20131" lon="-3.09213">
        <ele>143</ele>
        <time>2023-11-12T09:43:27Z</time>
      </trkpt>
      <trkpt lat="48.20114" lon="-3.09497">
        <ele>154</ele>
        <time>2023-11-12T09:47:40Z</time>
      </trkpt>
      <trkpt lat="48.20196" lon="-3.0969">
        <ele>162</ele>
        <time>2023-11-12T09:51:04Z</time>
      </trkpt>
      <trkpt lat="48.20385" lon="-3.09604">
        <ele>146</ele>
        <time>2023-11-12T09:55:27Z</time>
      </trkpt>
      <trkpt lat="48.20494" lon="-3.09642">
        <ele>138</ele>
        <time>2023-11-12T09:57:57Z</time>
      </trkpt>
      <trkpt lat="48.20568" lon="-3.0984">
        <ele>149</ele>
        <time>2023-11-12T10:01:19Z</time>
      </trkpt>
      <trkpt lat="48.2058" lon="-3.09921">
        <ele>146</ele>
        <time>2023-11-12T10:02:32Z</time>
      </trkpt>
      <trkpt lat="48.20517" lon="-3.10209">
        <ele>153</ele>
        <time>2023-11-12T10:07:02Z</time>
      </trkpt>
      <trkpt lat="48.20482" lon="-3.10634">
        <ele>154</ele>
        <time>2023-11-12T10:13:23Z</time>
      </trkpt>
      <trkpt lat="48.20594" lon="-3.10737">
        <ele>139</ele>
        <time>2023-11-12T10:16:18Z</time>
      </trkpt>
      <trkpt lat="48.20683" lon="-3.10797">
        <ele>139</ele>
        <time>2023-11-12T10:18:28Z</time>
      </trkpt>
      <trkpt lat="48.20686" lon="-3.10921">
        <ele>135</ele>
        <time>2023-11-12T10:20:19Z</time>
      </trkpt>
      <trkpt lat="48.20577" lon="-3.10977">
        <ele>141</ele>
        <time>2023-11-12T10:22:52Z</time>
      </trkpt>
      <trkpt lat="48.20517" lon="-3.11063">
        <ele>145</ele>
        <time>2023-11-12T10:24:43Z</time>
      </trkpt>
      <trkpt lat="48.20497" lon="-3.11243">
        <ele>146</ele>
        <time>2023-11-12T10:27:25Z</time>
      </trkpt>
      <trkpt lat="48.20528" lon="-3.11346">
        <ele>142</ele>
        <time>2023-11-12T10:29:06Z</time>
      </trkpt>
      <trkpt lat="48.20594" lon="-3.11531">
        <ele>138</ele>
        <time>2023-11-12T10:32:13Z</time>
      </trkpt>
      <trkpt lat="48.20663" lon="-3.11591">
        <ele>134</ele>
        <time>2023-11-12T10:33:59Z</time>
      </trkpt>
      <trkpt lat="48.20797" lon="-3.11677">
        <ele>146</ele>
        <time>2023-11-12T10:37:14Z</time>
      </trkpt>
      <trkpt lat="48.20929" lon="-3.11741">
        <ele>136</ele>
        <time>2023-11-12T10:40:19Z</time>
      </trkpt>
      <trkpt lat="48.20997" lon="-3.12011">
        <ele>143</ele>
        <time>2023-11-12T10:44:35Z</time>
      </trkpt>
      <trkpt lat="48.20989" lon="-3.12548">
        <ele>143</ele>
        <time>2023-11-12T10:52:33Z</time>
      </trkpt>
      <trkpt lat="48.21029" lon="-3.12857">
        <ele>150</ele>
        <time>2023-11-12T10:57:13Z</time>
      </trkpt>
      <trkpt lat="48.21152" lon="-3.13029">
        <ele>142</ele>
        <time>2023-11-12T11:00:57Z</time>
      </trkpt>
    </trkseg>
  </trk>
  <trk>
    <name><![CDATA[LacGuerledan_KerihuelBellevue_15km-8140798]]></name>
    <extensions>
      <line xmlns="http://www.topografix.com/GPX/gpx_style/0/2">
        <color>00FF00</color>
        <width>4</width>
      </line>
    </extensions>
    <trkseg>
      <trkpt lat="48.19868" lon="-3.01364">
        <ele>131</ele>
        <time>2023-11-12T06:44:55Z</time>
      </trkpt>
      <trkpt lat="48.19979" lon="-3.01334">
        <ele>149</ele>
        <time>2023-11-12T06:47:26Z</time>
      </trkpt>
      <trkpt lat="48.20131" lon="-3.01514">
        <ele>124</ele>
        <time>2023-11-12T06:51:44Z</time>
      </trkpt>
      <trkpt lat="48.20156" lon="-3.01407">
        <ele>136</ele>
        <time>2023-11-12T06:53:25Z</time>
      </trkpt>
      <trkpt lat="48.20311" lon="-3.01394">
        <ele>126</ele>
        <time>2023-11-12T06:56:52Z</time>
      </trkpt>
      <trkpt lat="48.2038" lon="-3.01291">
        <ele>139</ele>
        <time>2023-11-12T06:59:02Z</time>
      </trkpt>
      <trkpt lat="48.20594" lon="-3.01278">
        <ele>139</ele>
        <time>2023-11-12T07:03:48Z</time>
      </trkpt>
      <trkpt lat="48.20706" lon="-3.01403">
        <ele>129</ele>
        <time>2023-11-12T07:06:54Z</time>
      </trkpt>
      <trkpt lat="48.20786" lon="-3.01386">
        <ele>138</ele>
        <time>2023-11-12T07:08:42Z</time>
      </trkpt>
      <trkpt lat="48.20851" lon="-3.013">
        <ele>136</ele>
        <time>2023-11-12T07:10:37Z</time>
      </trkpt>
      <trkpt lat="48.20974" lon="-3.013">
        <ele>123</ele>
        <time>2023-11-12T07:13:22Z</time>
      </trkpt>
      <trkpt lat="48.20986" lon="-3.01042">
        <ele>129</ele>
        <time>2023-11-12T07:17:12Z</time>
      </trkpt>
      <trkpt lat="48.21063" lon="-3.01102">
        <ele>125</ele>
        <time>2023-11-12T07:19:07Z</time>
      </trkpt>
      <trkpt lat="48.21266" lon="-3.0118">
        <ele>126</ele>
        <time>2023-11-12T07:23:47Z</time>
      </trkpt>
      <trkpt lat="48.21355" lon="-3.01531">
        <ele>136</ele>
        <time>2023-11-12T07:29:21Z</time>
      </trkpt>
      <trkpt lat="48.21349" lon="-3.01652">
        <ele>134</ele>
        <time>2023-11-12T07:31:09Z</time>
      </trkpt>
      <trkpt lat="48.21278" lon="-3.01969">
        <ele>123</ele>
        <time>2023-11-12T07:36:06Z</time>
      </trkpt>
      <trkpt lat="48.21315" lon="-3.02184">
        <ele>126</ele>
        <time>2023-11-12T07:39:24Z</time>
      </trkpt>
      <trkpt lat="48.21183" lon="-3.02467">
        <ele>125</ele>
        <time>2023-11-12T07:44:31Z</time>
      </trkpt>
      <trkpt lat="48.21026" lon="-3.02527">
        <ele>127</ele>
        <time>2023-11-12T07:48:07Z</time>
      </trkpt>
      <trkpt lat="48.21049" lon="-3.02776">
        <ele>146</ele>
        <time>2023-11-12T07:51:51Z</time>
      </trkpt>
      <trkpt lat="48.20969" lon="-3.0287">
        <ele>153</ele>
        <time>2023-11-12T07:54:06Z</time>
      </trkpt>
      <trkpt lat="48.2096" lon="-3.03055">
        <ele>161</ele>
        <time>2023-11-12T07:56:51Z</time>
      </trkpt>
      <trkpt lat="48.20866" lon="-3.03008">
        <ele>166</ele>
        <time>2023-11-12T07:59:03Z</time>
      </trkpt>
      <trkpt lat="48.20786" lon="-3.03055">
        <ele>176</ele>
        <time>2023-11-12T08:00:58Z</time>
      </trkpt>
      <trkpt lat="48.20809" lon="-3.03317">
        <ele>166</ele>
        <time>2023-11-12T08:04:53Z</time>
      </trkpt>
      <trkpt lat="48.20837" lon="-3.03454">
        <ele>153</ele>
        <time>2023-11-12T08:07:00Z</time>
      </trkpt>
      <trkpt lat="48.2078" lon="-3.03458">
        <ele>152</ele>
        <time>2023-11-12T08:08:17Z</time>
      </trkpt>
      <trkpt lat="48.20743" lon="-3.03553">
        <ele>149</ele>
        <time>2023-11-12T08:09:54Z</time>
      </trkpt>
      <trkpt lat="48.2078" lon="-3.03703">
        <ele>146</ele>
        <time>2023-11-12T08:12:17Z</time>
      </trkpt>
      <trkpt lat="48.2088" lon="-3.03772">
        <ele>141</ele>
        <time>2023-11-12T08:14:44Z</time>
      </trkpt>
      <trkpt lat="48.21043" lon="-3.03866">
        <ele>134</ele>
        <time>2023-11-12T08:18:37Z</time>
      </trkpt>
      <trkpt lat="48.21032" lon="-3.04094">
        <ele>137</ele>
        <time>2023-11-12T08:22:00Z</time>
      </trkpt>
      <trkpt lat="48.21069" lon="-3.04179">
        <ele>135</ele>
        <time>2023-11-12T08:23:30Z</time>
      </trkpt>
      <trkpt lat="48.21012" lon="-3.04433">
        <ele>141</ele>
        <time>2023-11-12T08:27:28Z</time>
      </trkpt>
      <trkpt lat="48.20886" lon="-3.04621">
        <ele>130</ele>
        <time>2023-11-12T08:31:26Z</time>
      </trkpt>
      <trkpt lat="48.20952" lon="-3.04806">
        <ele>131</ele>
        <time>2023-11-12T08:34:32Z</time>
      </trkpt>
      <trkpt lat="48.21083" lon="-3.04896">
        <ele>135</ele>
        <time>2023-11-12T08:37:44Z</time>
      </trkpt>
      <trkpt lat="48.21066" lon="-3.04956">
        <ele>136</ele>
        <time>2023-11-12T08:38:42Z</time>
      </trkpt>
      <trkpt lat="48.20949" lon="-3.04956">
        <ele>136</ele>
        <time>2023-11-12T08:41:19Z</time>
      </trkpt>
      <trkpt lat="48.20837" lon="-3.04862">
        <ele>134</ele>
        <time>2023-11-12T08:44:10Z</time>
      </trkpt>
      <trkpt lat="48.20651" lon="-3.04587">
        <ele>123</ele>
        <time>2023-11-12T08:49:58Z</time>
      </trkpt>
      <trkpt lat="48.20551" lon="-3.04703">
        <ele>123</ele>
        <time>2023-11-12T08:52:47Z</time>
      </trkpt>
      <trkpt lat="48.20648" lon="-3.04926">
        <ele>133</ele>
        <time>2023-11-12T08:56:44Z</time>
      </trkpt>
      <trkpt lat="48.20643" lon="-3.05003">
        <ele>133</ele>
        <time>2023-11-12T08:57:53Z</time>
      </trkpt>
      <trkpt lat="48.20757" lon="-3.0522">
        <ele>150</ele>
        <time>2023-11-12T09:01:58Z</time>
      </trkpt>
      <trkpt lat="48.20874" lon="-3.0537">
        <ele>157</ele>
        <time>2023-11-12T09:05:24Z</time>
      </trkpt>
      <trkpt lat="48.20974" lon="-3.05362">
        <ele>163</ele>
        <time>2023-11-12T09:07:37Z</time>
      </trkpt>
      <trkpt lat="48.21013" lon="-3.05686">
        <ele>171</ele>
        <time>2023-11-12T09:12:30Z</time>
      </trkpt>
      <trkpt lat="48.20937" lon="-3.05684">
        <ele>168</ele>
        <time>2023-11-12T09:14:12Z</time>
      </trkpt>
      <trkpt lat="48.20881" lon="-3.05621">
        <ele>159</ele>
        <time>2023-11-12T09:15:45Z</time>
      </trkpt>
      <trkpt lat="48.208" lon="-3.05784">
        <ele>158</ele>
        <time>2023-11-12T09:18:46Z</time>
      </trkpt>
      <trkpt lat="48.20737" lon="-3.05971">
        <ele>148</ele>
        <time>2023-11-12T09:21:52Z</time>
      </trkpt>
      <trkpt lat="48.20786" lon="-3.06173">
        <ele>162</ele>
        <time>2023-11-12T09:25:03Z</time>
      </trkpt>
      <trkpt lat="48.20776" lon="-3.06374">
        <ele>160</ele>
        <time>2023-11-12T09:28:03Z</time>
      </trkpt>
      <trkpt lat="48.20737" lon="-3.0669">
        <ele>147</ele>
        <time>2023-11-12T09:32:48Z</time>
      </trkpt>
      <trkpt lat="48.20671" lon="-3.06896">
        <ele>134</ele>
        <time>2023-11-12T09:36:12Z</time>
      </trkpt>
      <trkpt lat="48.20863" lon="-3.07419">
        <ele>127</ele>
        <time>2023-11-12T09:45:03Z</time>
      </trkpt>
      <trkpt lat="48.2096" lon="-3.07261">
        <ele>156</ele>
        <time>2023-11-12T09:48:14Z</time>
      </trkpt>
      <trkpt lat="48.21052" lon="-3.07278">
        <ele>153</ele>
        <time>2023-11-12T09:50:17Z</time>
      </trkpt>
      <trkpt lat="48.21043" lon="-3.07428">
        <ele>140</ele>
        <time>2023-11-12T09:52:31Z</time>
      </trkpt>
      <trkpt lat="48.2112" lon="-3.07441">
        <ele>140</ele>
        <time>2023-11-12T09:54:15Z</time>
      </trkpt>
      <trkpt lat="48.21226" lon="-3.07278">
        <ele>147</ele>
        <time>2023-11-12T09:57:37Z</time>
      </trkpt>
      <trkpt lat="48.21255" lon="-3.07492">
        <ele>149</ele>
        <time>2023-11-12T10:00:51Z</time>
      </trkpt>
      <trkpt lat="48.21209" lon="-3.076">
        <ele>147</ele>
        <time>2023-11-12T10:02:45Z</time>
      </trkpt>
      <trkpt lat="48.21232" lon="-3.07716">
        <ele>152</ele>
        <time>2023-11-12T10:04:33Z</time>
      </trkpt>
      <trkpt lat="48.21412" lon="-3.07801">
        <ele>153</ele>
        <time>2023-11-12T10:08:45Z</time>
      </trkpt>
      <trkpt lat="48.21452" lon="-3.08273">
        <ele>154</ele>
        <time>2023-11-12T10:15:48Z</time>
      </trkpt>
      <trkpt lat="48.21355" lon="-3.08252">
        <ele>155</ele>
        <time>2023-11-12T10:17:59Z</time>
      </trkpt>
      <trkpt lat="48.21298" lon="-3.08012">
        <ele>133</ele>
        <time>2023-11-12T10:21:45Z</time>
      </trkpt>
      <trkpt lat="48.21212" lon="-3.08252">
        <ele>135</ele>
        <time>2023-11-12T10:25:48Z</time>
      </trkpt>
      <trkpt lat="48.21129" lon="-3.08312">
        <ele>130</ele>
        <time>2023-11-12T10:27:51Z</time>
      </trkpt>
      <trkpt lat="48.21163" lon="-3.08831">
        <ele>142</ele>
        <time>2023-11-12T10:35:34Z</time>
      </trkpt>
      <trkpt lat="48.20989" lon="-3.08737">
        <ele>141</ele>
        <time>2023-11-12T10:39:41Z</time>
      </trkpt>
      <trkpt lat="48.20937" lon="-3.08831">
        <ele>162</ele>
        <time>2023-11-12T10:41:30Z</time>
      </trkpt>
      <trkpt lat="48.20809" lon="-3.08737">
        <ele>155</ele>
        <time>2023-11-12T10:44:40Z</time>
      </trkpt>
      <trkpt lat="48.20777" lon="-3.08814">
        <ele>173</ele>
        <time>2023-11-12T10:46:01Z</time>
      </trkpt>
      <trkpt lat="48.20763" lon="-3.08711">
        <ele>143</ele>
        <time>2023-11-12T10:47:34Z</time>
      </trkpt>
      <trkpt lat="48.20482" lon="-3.08694">
        <ele>133</ele>
        <time>2023-11-12T10:53:49Z</time>
      </trkpt>
      <trkpt lat="48.20271" lon="-3.09265">
        <ele>133</ele>
        <time>2023-11-12T11:03:30Z</time>
      </trkpt>
      <trkpt lat="48.20331" lon="-3.09372">
        <ele>138</ele>
        <time>2023-11-12T11:05:34Z</time>
      </trkpt>
      <trkpt lat="48.20485" lon="-3.09394">
        <ele>145</ele>
        <time>2023-11-12T11:09:01Z</time>
      </trkpt>
      <trkpt lat="48.20608" lon="-3.09505">
        <ele>146</ele>
        <time>2023-11-12T11:12:12Z</time>
      </trkpt>
      <trkpt lat="48.20688" lon="-3.09655">
        <ele>147</ele>
        <time>2023-11-12T11:15:03Z</time>
      </trkpt>
      <trkpt lat="48.20691" lon="-3.10033">
        <ele>142</ele>
        <time>2023-11-12T11:20:39Z</time>
      </trkpt>
      <trkpt lat="48.20594" lon="-3.10509">
        <ele>133</ele>
        <time>2023-11-12T11:28:02Z</time>
      </trkpt>
      <trkpt lat="48.20768" lon="-3.10548">
        <ele>142</ele>
        <time>2023-11-12T11:31:57Z</time>
      </trkpt>
      <trkpt lat="48.20903" lon="-3.10724">
        <ele>143</ele>
        <time>2023-11-12T11:35:56Z</time>
      </trkpt>
      <trkpt lat="48.2094" lon="-3.10866">
        <ele>140</ele>
        <time>2023-11-12T11:38:11Z</time>
      </trkpt>
      <trkpt lat="48.20863" lon="-3.10973">
        <ele>135</ele>
        <time>2023-11-12T11:40:31Z</time>
      </trkpt>
      <trkpt lat="48.20746" lon="-3.11037">
        <ele>135</ele>
        <time>2023-11-12T11:43:17Z</time>
      </trkpt>
      <trkpt lat="48.20703" lon="-3.1102">
        <ele>132</ele>
        <time>2023-11-12T11:44:17Z</time>
      </trkpt>
    </trkseg>
  </trk>
</gpx>